Hourly Weather Cerquilho

Today, 14 June, Monday

Time Temperature Precipitation Wind Pressure Humidity
00:00 +10°C° 0 mm 3 mps 716 mmHg 89%
01:00 +10°C° 0 mm 2 mps 716 mmHg 90%
02:00 +9°C° 0 mm 2 mps 716 mmHg 91%
03:00 +10°C° 0 mm 2 mps 715 mmHg 92%
04:00 +10°C° 0 mm 2 mps 715 mmHg 93%
05:00 +9°C° 0 mm 2 mps 715 mmHg 93%
06:00 +9°C° 0 mm 2 mps 715 mmHg 93%
07:00 +12°C° 0 mm 2 mps 716 mmHg 86%
08:00 +14°C° 0 mm 2 mps 716 mmHg 80%
09:00 +16°C° 0 mm 2 mps 717 mmHg 74%
10:00 +18°C° 0 mm 2 mps 716 mmHg 68%
11:00 +20°C° 0 mm 2 mps 716 mmHg 61%
12:00 +23°C° 0 mm 2 mps 716 mmHg 55%
13:00 +24°C° 0 mm 1 mps 716 mmHg 51%
14:00 +24°C° 0 mm 1 mps 715 mmHg 48%
15:00 +25°C° 0 mm 1 mps 714 mmHg 45%
16:00 +23°C° 0 mm 1 mps 714 mmHg 51%
17:00 +21°C° 0 mm 1 mps 714 mmHg 57%
18:00 +20°C° 0 mm 1 mps 714 mmHg 63%
19:00 +18°C° 0 mm 1 mps 714 mmHg 69%
20:00 +16°C° 0 mm 2 mps 714 mmHg 75%
21:00 +15°C° 0 mm 2 mps 714 mmHg 82%
22:00 +15°C° 0 mm 2 mps 715 mmHg 84%
23:00 +14°C° 0 mm 2 mps 715 mmHg 87%

Tomorrow, 15 June, Tuesday

Time Temperature Precipitation Wind Pressure Humidity
00:00 +14°C° 0 mm 2 mps 715 mmHg 90%
01:00 +13°C° 0 mm 2 mps 714 mmHg 90%
02:00 +13°C° 0 mm 1 mps 714 mmHg 90%
03:00 +13°C° 0 mm 1 mps 714 mmHg 90%
04:00 +13°C° 0 mm 1 mps 714 mmHg 90%
05:00 +12°C° 0 mm 1 mps 714 mmHg 90%
06:00 +12°C° 0 mm 1 mps 714 mmHg 90%
07:00 +14°C° 0 mm 1 mps 714 mmHg 83%
08:00 +16°C° 0 mm 1 mps 715 mmHg 77%
09:00 +18°C° 0 mm 1 mps 715 mmHg 70%
10:00 +20°C° 0 mm 1 mps 715 mmHg 63%
11:00 +20°C° 0 mm 0 mps 715 mmHg 56%
12:00 +23°C° 0 mm 0 mps 715 mmHg 48%
13:00 +25°C° 0 mm 1 mps 714 mmHg 46%
14:00 +26°C° 0 mm 1 mps 714 mmHg 44%
15:00 +26°C° 0 mm 2 mps 713 mmHg 42%
16:00 +24°C° 0 mm 1 mps 713 mmHg 48%
17:00 +22°C° 0 mm 1 mps 713 mmHg 54%
18:00 +18°C° 0 mm 0 mps 712 mmHg 60%
19:00 +19°C° 0 mm 1 mps 713 mmHg 64%
20:00 +17°C° 0 mm 2 mps 713 mmHg 68%
21:00 +16°C° 0 mm 2 mps 714 mmHg 73%
22:00 +14°C° 0 mm 3 mps 713 mmHg 79%
23:00 +14°C° 0 mm 3 mps 713 mmHg 86%

Day after tomorrow, 16 June, Wednesday

Time Temperature Precipitation Wind Pressure Humidity
00:00 +13°C° 0 mm 3 mps 713 mmHg 92%
01:00 +13°C° 0 mm 3 mps 713 mmHg 93%
02:00 +12°C° 0 mm 3 mps 713 mmHg 94%
03:00 +12°C° 0 mm 3 mps 713 mmHg 95%
04:00 +12°C° 0 mm 3 mps 713 mmHg 95%
05:00 +12°C° 0 mm 3 mps 713 mmHg 94%
06:00 +12°C° 0 mm 3 mps 713 mmHg 94%
07:00 +13°C° 0 mm 3 mps 714 mmHg 87%
08:00 +16°C° 0 mm 3 mps 714 mmHg 80%
09:00 +17°C° 0 mm 3 mps 715 mmHg 73%
10:00 +19°C° 0 mm 3 mps 715 mmHg 65%
11:00 +21°C° 0 mm 3 mps 715 mmHg 57%
12:00 +22°C° 0 mm 3 mps 715 mmHg 50%
13:00 +24°C° 0 mm 3 mps 714 mmHg 48%
14:00 +24°C° 0 mm 3 mps 714 mmHg 45%
15:00 +24°C° 0 mm 3 mps 713 mmHg 43%
16:00 +21°C° 0 mm 4 mps 713 mmHg 54%
17:00 +19°C° 0 mm 5 mps 714 mmHg 65%
18:00 +16°C° 0 mm 6 mps 714 mmHg 76%
19:00 +15°C° 0 mm 6 mps 714 mmHg 79%
20:00 +14°C° 0 mm 5 mps 715 mmHg 81%
21:00 +14°C° 0 mm 5 mps 715 mmHg 84%
22:00 +13°C° 0 mm 4 mps 715 mmHg 86%
23:00 +13°C° 0 mm 4 mps 715 mmHg 89%

17 June, Thursday

Time Temperature Precipitation Wind Pressure Humidity
00:00 +12°C° 0 mm 3 mps 715 mmHg 91%
01:00 +12°C° 0 mm 3 mps 715 mmHg 92%
02:00 +11°C° 0 mm 3 mps 715 mmHg 93%
03:00 +12°C° 0 mm 2 mps 715 mmHg 93%
04:00 +12°C° 0 mm 2 mps 715 mmHg 94%
05:00 +12°C° 0 mm 2 mps 715 mmHg 94%
06:00 +12°C° 0 mm 2 mps 715 mmHg 94%
07:00 +12°C° 0 mm 3 mps 715 mmHg 87%
08:00 +14°C° 0 mm 3 mps 716 mmHg 80%
09:00 +17°C° 0 mm 4 mps 716 mmHg 72%
10:00 +18°C° 0 mm 4 mps 716 mmHg 65%
11:00 +20°C° 0 mm 4 mps 716 mmHg 58%
12:00 +22°C° 0 mm 3 mps 716 mmHg 50%
13:00 +22°C° 0 mm 3 mps 716 mmHg 49%
14:00 +22°C° 0 mm 3 mps 715 mmHg 47%
15:00 +24°C° 0 mm 3 mps 715 mmHg 46%
16:00 +21°C° 0 mm 4 mps 715 mmHg 55%
17:00 +18°C° 0 mm 4 mps 715 mmHg 64%
18:00 +15°C° 0 mm 5 mps 715 mmHg 74%
19:00 +14°C° 0 mm 5 mps 715 mmHg 79%
20:00 +13°C° 0 mm 4 mps 716 mmHg 85%
21:00 +12°C° 0 mm 4 mps 716 mmHg 90%
22:00 +13°C° 0 mm 4 mps 716 mmHg 88%
23:00 +13°C° 0 mm 3 mps 716 mmHg 87%

18 June, Friday

Time Temperature Precipitation Wind Pressure Humidity
00:00 +13°C° 0 mm 3 mps 716 mmHg 85%
01:00 +13°C° 0 mm 3 mps 716 mmHg 85%
02:00 +14°C° 0 mm 2 mps 715 mmHg 84%
03:00 +14°C° 0 mm 2 mps 715 mmHg 83%
04:00 +14°C° 0 mm 2 mps 715 mmHg 83%
05:00 +14°C° 0 mm 2 mps 715 mmHg 83%
06:00 +14°C° 0 mm 2 mps 715 mmHg 82%
07:00 +15°C° 0 mm 2 mps 716 mmHg 79%
08:00 +16°C° 0 mm 2 mps 716 mmHg 75%
09:00 +17°C° 0 mm 3 mps 717 mmHg 72%
10:00 +18°C° 0 mm 2 mps 717 mmHg 67%
11:00 +19°C° 0 mm 2 mps 717 mmHg 63%
12:00 +20°C° 0 mm 2 mps 717 mmHg 58%
13:00 +21°C° 0 mm 1 mps 716 mmHg 57%
14:00 +21°C° 0 mm 1 mps 716 mmHg 56%
15:00 +22°C° 0 mm 1 mps 715 mmHg 55%
16:00 +19°C° 0 mm 2 mps 715 mmHg 63%
17:00 +18°C° 0 mm 3 mps 715 mmHg 72%
18:00 +15°C° 0 mm 4 mps 715 mmHg 81%
19:00 +15°C° 0 mm 4 mps 716 mmHg 81%
20:00 +15°C° 0 mm 4 mps 716 mmHg 82%
21:00 +15°C° 0 mm 4 mps 716 mmHg 83%
22:00 +15°C° 0.2 mm 4 mps 716 mmHg 85%
23:00 +16°C° 0.2 mm 3 mps 715 mmHg 88%

19 June, Saturday

Time Temperature Precipitation Wind Pressure Humidity
00:00 +16°C° 0.2 mm 3 mps 715 mmHg 90%
01:00 +14°C° 0.3 mm 3 mps 715 mmHg 91%
02:00 +15°C° 0.3 mm 2 mps 715 mmHg 93%
03:00 +15°C° 0.3 mm 2 mps 714 mmHg 94%
04:00 +15°C° 0.6 mm 2 mps 714 mmHg 94%
05:00 +15°C° 0.6 mm 2 mps 714 mmHg 95%
06:00 +15°C° 0.6 mm 2 mps 714 mmHg 95%
07:00 +15°C° 0.1 mm 2 mps 714 mmHg 94%
08:00 +16°C° 0.1 mm 2 mps 714 mmHg 93%
09:00 +16°C° 0.1 mm 1 mps 714 mmHg 92%
10:00 +17°C° 0.2 mm 2 mps 715 mmHg 89%
11:00 +18°C° 0.2 mm 3 mps 715 mmHg 85%
12:00 +18°C° 0.2 mm 3 mps 715 mmHg 82%
13:00 +18°C° 0.4 mm 3 mps 715 mmHg 84%
14:00 +17°C° 0.4 mm 3 mps 714 mmHg 87%
15:00 +17°C° 0.4 mm 3 mps 714 mmHg 89%
16:00 +16°C° 1.9 mm 3 mps 714 mmHg 92%
17:00 +16°C° 1.9 mm 2 mps 714 mmHg 94%
18:00 +16°C° 1.9 mm 2 mps 714 mmHg 96%
19:00 +16°C° 1.6 mm 1 mps 715 mmHg 96%
20:00 +16°C° 1.6 mm 1 mps 715 mmHg 96%
21:00 +16°C° 1.6 mm 1 mps 715 mmHg 96%
22:00 +15°C° 0.1 mm 1 mps 715 mmHg 96%
23:00 +15°C° 0.1 mm 1 mps 715 mmHg 96%
Show more

We Need Your Consent

Meteoprog and our Service Providers may store and access personal data such as cookies, device identifiers or other similar technologies on your device and process such data to personalise content and ads, as well as provide social media features and to analyse the traffic.

  • Store and/or access information on your device

    Cookies, device identifiers or other information can be stored or accessed on your device for the purposes indicated above.

  • Personalised ads and content, ad and content measurement, audience insights, and products development

    Ads and content can be personalised based on a profile. More data can be added to better personalise ads and content. Ad and content performance can be measured. Insights about the audience who saw the ads and content can be derived. Such data can be used to develop or improve user’s experience, systems and software.

By clicking ‘I Agree’ you will allow the use of indicated cookies, device identifiers, web beacons or other similar technologies. Your settings can be changed in the browser on your device.

For certain purposes, legitimate interests may be relied on, rather than consent. You can read more about this in our Privacy and Cookie Policy.